DAL9252 VABB-VIDP

Flight info

Callsign DAL9252
Flight time 1h 35m
Altitude 37000
Route ANOL2AXISRIS/27 ANOLI2A ISRIS Q1 UKASO UKASO7C
Aircraft A320/M-SDE3FGHIRWY/LB1

Departure

Time 2026-05-04 05:09
Airport Chhatrapati Shivaji Maharaj International Airport (VABB)

Arrival

Time 2026-05-04 06:45
Airport Indira Gandhi International Airport (VIDP)
Time Latitude Longitude Altitude Speed Heading
2026-05-04 04:55 19.09376 72.87285 34 ft 0 kts 308°
2026-05-04 04:56 19.09377 72.87283 34 ft 0 kts 308°
2026-05-04 04:56 19.09372 72.87299 32 ft 2 kts 241°
2026-05-04 04:57 19.09378 72.87308 32 ft 0 kts 194°
2026-05-04 05:02 19.09376 72.87308 34 ft 1 kts 192°
2026-05-04 05:03 19.09302 72.87300 34 ft 15 kts 208°
2026-05-04 05:03 19.09253 72.87212 34 ft 11 kts 210°
2026-05-04 05:04 19.09053 72.87315 34 ft 14 kts 101°
2026-05-04 05:04 19.09052 72.87426 35 ft 14 kts 89°
2026-05-04 05:04 19.09052 72.87525 36 ft 13 kts 89°
2026-05-04 05:06 19.09017 72.88052 38 ft 0 kts 168°
2026-05-04 05:06 19.08984 72.88052 38 ft 16 kts 187°
2026-05-04 05:07 19.08888 72.87925 37 ft 29 kts 265°
2026-05-04 05:07 19.08880 72.87531 35 ft 93 kts 269°
2026-05-04 05:07 19.08867 72.86561 36 ft 167 kts 270°
2026-05-04 05:09 19.08740 72.75638 3088 ft 241 kts 268°
2026-05-04 05:09 19.09023 72.73831 3632 ft 261 kts 295°
2026-05-04 05:10 19.10288 72.72446 4442 ft 271 kts 330°
2026-05-04 05:10 19.12132 72.72047 5306 ft 277 kts
2026-05-04 05:10 19.14040 72.72298 6237 ft 276 kts
2026-05-04 05:10 19.15945 72.72555 7066 ft 276 kts
2026-05-04 05:11 19.17863 72.72807 7818 ft 279 kts
2026-05-04 05:11 19.19802 72.73061 8584 ft 282 kts
2026-05-04 05:11 19.21758 72.73322 9326 ft 284 kts
2026-05-04 05:11 19.23677 72.73582 9581 ft 275 kts
2026-05-04 05:12 19.25628 72.73847 10005 ft 287 kts
2026-05-04 05:12 19.27634 72.74118 10348 ft 305 kts
2026-05-04 05:12 19.29819 72.74412 10542 ft 327 kts
2026-05-04 05:12 19.32106 72.74724 11048 ft 335 kts
2026-05-04 05:13 19.34437 72.75048 11623 ft 341 kts
2026-05-04 05:13 19.36797 72.75377 12247 ft 345 kts
2026-05-04 05:13 19.39189 72.75706 12854 ft 349 kts
2026-05-04 05:13 19.41616 72.76038 13422 ft 354 kts
2026-05-04 05:14 19.44081 72.76376 13963 ft 359 kts
2026-05-04 05:14 19.46574 72.76719 14511 ft 363 kts
2026-05-04 05:14 19.49086 72.77064 15078 ft 365 kts
2026-05-04 05:14 19.51617 72.77412 15645 ft 368 kts
2026-05-04 05:15 19.54172 72.77762 16203 ft 371 kts
2026-05-04 05:15 19.56741 72.78113 16772 ft 374 kts
2026-05-04 05:15 19.59335 72.78467 17336 ft 377 kts
2026-05-04 05:15 19.61946 72.78824 17893 ft 380 kts
2026-05-04 05:16 19.64581 72.79190 18393 ft 384 kts
2026-05-04 05:16 19.67242 72.79562 18864 ft 387 kts
2026-05-04 05:16 19.69924 72.79938 19361 ft 390 kts
2026-05-04 05:16 19.72623 72.80312 19866 ft 392 kts
2026-05-04 05:17 19.75339 72.80683 20380 ft 395 kts
2026-05-04 05:17 19.78072 72.81055 20898 ft 397 kts
2026-05-04 05:17 19.80822 72.81431 21385 ft 400 kts
2026-05-04 05:17 19.83595 72.81814 21876 ft 403 kts
2026-05-04 05:18 19.86386 72.82202 22373 ft 406 kts
2026-05-04 05:18 19.89194 72.82591 22837 ft 408 kts
2026-05-04 05:18 19.92021 72.82982 23299 ft 411 kts
2026-05-04 05:18 19.94863 72.83375 23699 ft 413 kts
2026-05-04 05:19 19.97725 72.83772 24071 ft 416 kts
2026-05-04 05:19 20.00602 72.84171 24431 ft 418 kts
2026-05-04 05:19 20.03495 72.84572 24777 ft 421 kts
2026-05-04 05:19 20.06407 72.84975 25111 ft 423 kts
2026-05-04 05:20 20.09298 72.85374 25432 ft 426 kts
2026-05-04 05:20 20.12240 72.85783 25761 ft 428 kts
2026-05-04 05:20 20.15241 72.86201 26081 ft 430 kts
2026-05-04 05:20 20.18213 72.86615 26390 ft 432 kts
2026-05-04 05:21 20.21202 72.87031 26702 ft 434 kts
2026-05-04 05:21 20.24163 72.87443 26986 ft 436 kts
2026-05-04 05:21 20.27181 72.87862 27274 ft 438 kts
2026-05-04 05:21 20.30211 72.88283 27570 ft 441 kts
2026-05-04 05:22 20.33259 72.88707 27844 ft 443 kts
2026-05-04 05:22 20.36319 72.89131 28116 ft 445 kts
2026-05-04 05:22 20.39397 72.89558 28380 ft 447 kts
2026-05-04 05:22 20.42485 72.89988 28625 ft 449 kts
2026-05-04 05:23 20.45589 72.90419 28882 ft 451 kts
2026-05-04 05:23 20.48704 72.90853 29120 ft 453 kts
2026-05-04 05:23 20.51834 72.91290 29354 ft 455 kts
2026-05-04 05:23 20.54979 72.91729 29588 ft 457 kts
2026-05-04 05:24 20.58138 72.92167 29807 ft 458 kts
2026-05-04 05:24 20.61305 72.92606 30028 ft 460 kts
2026-05-04 05:24 20.64484 72.93049 30231 ft 461 kts
2026-05-04 05:24 20.67668 72.93494 30408 ft 462 kts
2026-05-04 05:25 20.70858 72.93941 30609 ft 463 kts
2026-05-04 05:25 20.74057 72.94389 30793 ft 464 kts
2026-05-04 05:25 20.77263 72.94695 30971 ft 461 kts 358°
2026-05-04 05:25 20.80466 72.94814 31216 ft 460 kts 358°
2026-05-04 05:26 20.83663 72.94931 31485 ft 459 kts 358°
2026-05-04 05:26 20.86848 72.95045 31753 ft 458 kts 358°
2026-05-04 05:26 20.90036 72.95157 31965 ft 459 kts 357°
2026-05-04 05:26 20.93224 72.95270 32191 ft 459 kts 357°
2026-05-04 05:27 20.96410 72.95385 32478 ft 457 kts 357°
2026-05-04 05:28 21.18452 72.96451 34272 ft 456 kts
2026-05-04 05:29 21.21531 72.97366 34456 ft 462 kts 14°
2026-05-04 05:29 21.24559 72.98533 34632 ft 463 kts 14°
2026-05-04 05:29 21.27588 72.99709 34809 ft 463 kts 14°
2026-05-04 05:29 21.30617 73.00887 34988 ft 463 kts 14°
2026-05-04 05:31 21.51809 73.09076 36181 ft 462 kts 14°
2026-05-04 05:31 21.54837 73.10245 36336 ft 462 kts 14°
2026-05-04 05:32 21.57862 73.11412 36492 ft 462 kts 14°
2026-05-04 05:32 21.60891 73.12581 36637 ft 463 kts 14°
2026-05-04 05:32 21.63918 73.13754 36786 ft 463 kts 14°
2026-05-04 05:33 21.69961 73.16101 36828 ft 461 kts 14°
2026-05-04 05:33 21.75989 73.18445 36819 ft 461 kts 14°
2026-05-04 05:34 21.82015 73.20782 36824 ft 460 kts 14°
2026-05-04 05:34 21.88044 73.23122 36823 ft 460 kts 14°
2026-05-04 05:35 21.93050 73.25070 36849 ft 461 kts 14°
2026-05-04 05:35 21.99078 73.27418 36832 ft 461 kts 14°
2026-05-04 05:36 22.06085 73.30145 36828 ft 461 kts 14°
2026-05-04 05:36 22.11144 73.32118 36819 ft 461 kts 14°
2026-05-04 05:37 22.17181 73.34476 36804 ft 462 kts 14°
2026-05-04 05:37 22.23233 73.36835 36804 ft 462 kts 14°
2026-05-04 05:38 22.32313 73.40388 36818 ft 463 kts 14°
2026-05-04 05:38 22.38370 73.42765 36814 ft 463 kts 14°
2026-05-04 05:39 22.47458 73.46339 36812 ft 463 kts 14°
2026-05-04 05:40 22.56511 73.49887 36845 ft 463 kts 13°
2026-05-04 05:40 22.62574 73.52265 36844 ft 464 kts 14°
2026-05-04 05:41 22.68640 73.54653 36837 ft 464 kts 14°
2026-05-04 05:41 22.74704 73.57042 36834 ft 464 kts 14°
2026-05-04 05:42 22.80812 73.59444 36833 ft 464 kts 14°
2026-05-04 05:42 22.86838 73.61820 36832 ft 464 kts 14°
2026-05-04 05:43 22.92907 73.64222 36857 ft 464 kts 13°
2026-05-04 05:45 23.17257 73.73857 36838 ft 467 kts 14°
2026-05-04 05:47 23.41704 73.83582 36861 ft 468 kts 13°
2026-05-04 05:47 23.47824 73.86013 36858 ft 468 kts 13°
2026-05-04 05:48 23.53897 73.88438 36891 ft 468 kts 13°
2026-05-04 05:48 23.60053 73.90889 36879 ft 468 kts 13°
2026-05-04 05:49 23.66130 73.93310 36869 ft 468 kts 14°
2026-05-04 05:49 23.72247 73.95760 36872 ft 468 kts 14°
2026-05-04 05:51 23.96754 74.05598 36879 ft 470 kts 14°
2026-05-04 05:52 24.02891 74.08072 36877 ft 470 kts 14°
2026-05-04 05:52 24.09038 74.10538 36884 ft 471 kts 14°
2026-05-04 05:54 24.33627 74.20427 36911 ft 470 kts 14°
2026-05-04 05:55 24.39720 74.22890 36908 ft 470 kts 14°
2026-05-04 05:55 24.45853 74.25374 36905 ft 470 kts 14°
2026-05-04 05:56 24.51982 74.27853 36904 ft 469 kts 14°
2026-05-04 05:56 24.58112 74.30336 36898 ft 469 kts 14°
2026-05-04 05:57 24.64239 74.32823 36896 ft 469 kts 14°
2026-05-04 05:57 24.70363 74.35318 36891 ft 469 kts 14°
2026-05-04 05:58 24.76489 74.37817 36875 ft 470 kts 14°
2026-05-04 05:58 24.82636 74.40316 36893 ft 471 kts 14°
2026-05-04 05:59 24.88780 74.42821 36886 ft 471 kts 14°
2026-05-04 05:59 24.94931 74.45337 36878 ft 471 kts 14°
2026-05-04 06:00 25.01083 74.47851 36872 ft 471 kts 14°
2026-05-04 06:00 25.07234 74.50362 36869 ft 471 kts 14°
2026-05-04 06:01 25.13382 74.52883 36911 ft 471 kts 14°
2026-05-04 06:03 25.37888 74.62990 36854 ft 470 kts 14°
2026-05-04 06:05 25.65454 74.74395 36850 ft 469 kts 14°
2026-05-04 06:06 25.71573 74.76933 36846 ft 469 kts 14°
2026-05-04 06:06 25.77686 74.79473 36879 ft 469 kts 14°
2026-05-04 06:07 25.83799 74.82015 36866 ft 469 kts 14°
2026-05-04 06:07 25.89904 74.84563 36861 ft 469 kts 14°
2026-05-04 06:08 25.96008 74.87106 36859 ft 468 kts 14°
2026-05-04 06:08 26.02110 74.89649 36856 ft 468 kts 14°
2026-05-04 06:09 26.08214 74.92201 36894 ft 469 kts 14°
2026-05-04 06:11 26.32578 75.02383 36866 ft 468 kts 14°
2026-05-04 06:13 26.57040 75.12654 36846 ft 471 kts 14°
2026-05-04 06:14 26.78584 75.21688 36878 ft 473 kts 14°
2026-05-04 06:15 26.84750 75.24283 36864 ft 473 kts 14°
2026-05-04 06:15 26.90916 75.26873 36857 ft 473 kts 14°
2026-05-04 06:16 26.97079 75.29470 36852 ft 473 kts 14°
2026-05-04 06:16 27.03235 75.32067 36865 ft 473 kts 14°
2026-05-04 06:17 27.09388 75.34673 36852 ft 472 kts 14°
2026-05-04 06:17 27.15535 75.37276 36853 ft 473 kts 14°
2026-05-04 06:18 27.21541 75.40377 36842 ft 482 kts 28°
2026-05-04 06:20 27.41335 75.61536 36848 ft 493 kts 40°
2026-05-04 06:21 27.53553 75.75086 36856 ft 493 kts 40°
2026-05-04 06:22 27.58439 75.80512 36659 ft 495 kts 41°
2026-05-04 06:22 27.60965 75.83214 35546 ft 504 kts 35°
2026-05-04 06:25 27.99044 75.98322 29019 ft 439 kts 12°
2026-05-04 06:25 28.01958 75.99310 28553 ft 434 kts 12°
2026-05-04 06:26 28.04834 76.00283 28098 ft 429 kts 12°
2026-05-04 06:26 28.07683 76.01246 27563 ft 426 kts 12°
2026-05-04 06:26 28.10523 76.02205 27022 ft 424 kts 12°
2026-05-04 06:26 28.13338 76.03158 26586 ft 420 kts 12°
2026-05-04 06:27 28.22878 76.09831 25051 ft 411 kts 58°
2026-05-04 06:28 28.24019 76.12784 24578 ft 407 kts 73°
2026-05-04 06:28 28.24681 76.15903 24045 ft 406 kts 77°
2026-05-04 06:28 28.25299 76.19000 23453 ft 400 kts 78°
2026-05-04 06:28 28.25906 76.22049 22738 ft 393 kts 78°
2026-05-04 06:29 28.26498 76.25029 22225 ft 381 kts 78°
2026-05-04 06:29 28.27075 76.27936 21772 ft 377 kts 77°
2026-05-04 06:29 28.27651 76.30837 21315 ft 376 kts 77°
2026-05-04 06:29 28.28228 76.33732 20853 ft 376 kts 77°
2026-05-04 06:30 28.28805 76.36623 20398 ft 376 kts 77°
2026-05-04 06:30 28.29383 76.39515 19945 ft 376 kts 77°
2026-05-04 06:30 28.29952 76.42357 19593 ft 372 kts 77°
2026-05-04 06:30 28.30530 76.45242 19045 ft 366 kts 77°
2026-05-04 06:31 28.31076 76.47976 18621 ft 355 kts 77°
2026-05-04 06:31 28.31615 76.50700 18193 ft 354 kts 77°
2026-05-04 06:31 28.32153 76.53430 17782 ft 354 kts 77°
2026-05-04 06:31 28.32686 76.56136 17424 ft 351 kts 77°
2026-05-04 06:32 28.33219 76.58838 17008 ft 350 kts 77°
2026-05-04 06:33 28.39776 76.76354 14305 ft 344 kts 58°
2026-05-04 06:34 28.40966 76.78667 13861 ft 335 kts 58°
2026-05-04 06:34 28.42123 76.80924 13453 ft 326 kts 59°
2026-05-04 06:34 28.43247 76.83117 13082 ft 319 kts 59°
2026-05-04 06:34 28.44334 76.85318 12700 ft 320 kts 66°
2026-05-04 06:35 28.44850 76.87756 12293 ft 319 kts 90°
2026-05-04 06:36 28.37560 77.02519 9542 ft 312 kts 109°
2026-05-04 06:37 28.37033 77.04903 9167 ft 311 kts 102°
2026-05-04 06:37 28.36728 77.07305 8742 ft 305 kts 98°
2026-05-04 06:37 28.36641 77.09699 8112 ft 302 kts 91°
2026-05-04 06:37 28.36793 77.12045 7630 ft 293 kts 84°
2026-05-04 06:38 28.37164 77.14277 7222 ft 282 kts 77°
2026-05-04 06:38 28.37698 77.16381 6811 ft 273 kts 74°
2026-05-04 06:40 28.44961 77.27745 4778 ft 231 kts 41°
2026-05-04 06:40 28.46272 77.28735 4677 ft 222 kts 35°
2026-05-04 06:40 28.47709 77.29280 4582 ft 219 kts
2026-05-04 06:40 28.49161 77.28982 4530 ft 210 kts 337°
2026-05-04 06:41 28.50265 77.27982 4417 ft 200 kts 304°
2026-05-04 06:41 28.50757 77.26596 4353 ft 181 kts 282°
2026-05-04 06:41 28.51052 77.25227 4091 ft 180 kts 281°
2026-05-04 06:41 28.51352 77.23825 3661 ft 184 kts 282°
2026-05-04 06:42 28.51656 77.22412 3154 ft 186 kts 282°
2026-05-04 06:42 28.51966 77.20974 2705 ft 186 kts 282°
2026-05-04 06:42 28.52270 77.19568 2396 ft 182 kts 281°
2026-05-04 06:44 28.54242 77.10419 885 ft 163 kts 285°
2026-05-04 06:44 28.54507 77.09214 761 ft 146 kts 287°
2026-05-04 06:44 28.54701 77.08274 748 ft 97 kts 282°
2026-05-04 06:45 28.54804 77.07792 743 ft 39 kts 282°
2026-05-04 06:45 28.54866 77.07555 741 ft 17 kts 326°
2026-05-04 06:45 28.54952 77.07570 741 ft 20 kts 14°
2026-05-04 06:45 28.55107 77.07615 740 ft 24 kts 15°
2026-05-04 06:46 28.55258 77.07672 740 ft 21 kts 37°
2026-05-04 06:46 28.55260 77.07800 741 ft 17 kts 111°
2026-05-04 06:46 28.55271 77.07930 742 ft 17 kts 60°
2026-05-04 06:46 28.55357 77.07989 742 ft 14 kts 48°
2026-05-04 06:48 28.55398 77.07991 741 ft 0 kts 344°